Location: *
(43.0931°N, 0.0414°E)
Time: 03:39:40
(UTC+00:00)

Daily predictions for brighter satellites

Satellite Brightness Start Highest point End
(mag) Time Altitude Azimuth Time Altitude Azimuth Time Altitude Azimuth
Cosmos 2221 Rocket 4.1 00:01:03 10° NNW 00:04:48 54° NW 00:04:48 54° NW
Cosmos 2278 Rocket 4.5 00:11:34 10° W 00:12:43 11° W 00:12:51 11° W
ERS-2 3.7 00:15:34 32° NW 00:15:34 32° NW 00:17:43 10° NNW
ISS -1.1 00:13:03 10° NW 00:14:00 17° NW 00:14:00 17° NW
BREEZE-M DEB (TANK) 4.0 00:05:35 10° W 00:16:33 70° N 00:19:16 21° E
NOSS 3-4 (A) 4.0 00:19:05 41° ESE 00:19:05 41° ESE 00:24:47 10° NE
NOSS 3-4 (C) 4.0 00:19:11 40° ESE 00:19:11 40° ESE 00:24:52 10° NE
Meteor 1-19 Rocket 4.0 00:13:39 10° NNW 00:19:07 78° W 00:19:16 77° WSW
PSLV R/B 4.4 00:17:01 10° NNE 00:20:15 43° ENE 00:20:15 43° ENE
CZ-2D R/B 4.3 00:20:09 10° ENE 00:22:49 14° E 00:24:02 13° ESE
BREEZE-M DEB (TANK) 4.4 00:25:58 37° E 00:25:58 37° E 00:31:32 10° ESE
Cosmos 1809 Rocket 4.3 00:18:23 10° N 00:24:32 86° E 00:25:22 69° SSE
USA 32 4.2 00:22:47 10° N 00:27:59 58° E 00:28:19 57° E
Lacrosse 5 3.5 00:23:43 10° WNW 00:26:00 22° W 00:26:00 22° W
Cosmos 968 Rocket 3.5 00:31:06 69° W 00:31:13 70° WNW 00:36:22 10° NNE
CZ-4C R/B 3.9 00:33:25 66° NNE 00:33:25 66° NNE 00:37:26 10° N
CENTAUR R/B 3.7 00:25:41 10° NNW 00:33:29 55° NE 00:41:56 10° ESE
SL-19 R/B 4.1 00:29:09 10° N 00:34:40 71° WNW 00:35:08 67° WSW
NOSS 3-2 (A) 4.0 00:28:53 10° NW 00:36:30 85° WSW 00:39:40 43° SSE
Cosmos 2369 Rocket 2.0 00:31:01 10° NNW 00:36:46 86° WSW 00:37:11 77° S
Lacrosse 4 Rocket 4.0 00:34:46 12° WNW 00:36:56 16° NW 00:39:44 10° N
Cosmos 1503 Rocket 4.3 00:38:53 53° W 00:39:22 55° WNW 00:44:37 10° NNE
Meteor 1-11 Rocket 3.6 00:38:58 68° SE 00:39:27 73° E 00:45:11 10° NNE
ATLAS 3B R/B 3.0 00:34:59 10° NNW 00:41:35 60° NE 00:45:45 24° ESE
Unknown 4.4 00:42:56 49° NNE 00:42:56 49° NNE 00:46:07 10° NE
Cosmos 1674 Rocket 4.0 00:37:38 10° NNW 00:41:25 59° NW 00:41:25 59° NW
Cosmos 1975 Rocket 4.4 00:38:21 10° NNE 00:42:11 30° ENE 00:42:30 30° E
Cosmos 1733 Rocket 3.8 00:43:15 45° NW 00:43:15 45° NW 00:46:59 10° N
Unknown 4.4 00:44:31 51° NNE 00:44:31 51° NNE 00:47:47 10° NE
Meteor 2-16 Rocket 4.5 00:37:43 10° N 00:43:55 72° E 00:45:11 56° SE
Unknown 4.3 00:46:06 52° NNE 00:46:06 52° NNE 00:49:27 10° NE
Meteor 1-5 Rocket 4.2 00:44:40 69° S 00:45:27 88° E 00:51:28 10° N
Unknown 4.3 00:47:42 53° NNE 00:47:42 53° NNE 00:51:05 10° NE
Unknown 4.5 00:48:33 45° N 00:48:33 45° N 00:51:43 10° NE
Unknown 4.3 00:49:20 54° N 00:49:20 54° N 00:52:51 10° NE
Unknown 4.2 00:50:54 54° NNE 00:50:54 54° NNE 00:54:25 10° NE
Meteor 2-21 4.4 00:44:37 10° NNW 00:50:38 67° W 00:51:22 61° SW
Cosmos 1603 3.9 00:50:41 52° W 00:51:35 59° WNW 00:57:10 10° NNE
NOSS 2-2 (E) 4.3 00:52:00 42° NNW 00:52:00 42° NNW 00:55:47 10° NNE
Unknown 4.2 00:52:31 55° N 00:52:31 55° N 00:56:09 10° NE
Unknown 4.2 00:54:04 55° N 00:54:04 55° N 00:57:43 10° NE
Unknown 4.2 00:55:41 55° N 00:55:41 55° N 00:59:24 10° NE
Cosmos 1378 Rocket 3.9 00:51:34 10° NNW 00:55:10 59° NW 00:55:10 59° NW
Meteor 2-21 Rocket 4.3 00:50:25 10° NNW 00:56:29 77° W 00:57:23 64° SSW
Cosmos 1500 4.1 00:58:10 47° N 00:58:10 47° N 01:01:01 10° N
CZ-4B R/B 3.2 00:55:00 10° NNE 00:59:59 83° ESE 01:00:05 82° SE
Unknown 4.2 01:00:29 53° NNW 01:00:29 53° NNW 01:04:23 10° NE
Cosmos 1346 Rocket 4.5 01:01:55 26° E 01:01:55 26° E 01:05:04 10° NE
Unknown 4.2 01:02:02 53° NNW 01:02:02 53° NNW 01:06:00 10° NE
Unknown 4.3 01:03:40 51° NNW 01:03:40 51° NNW 01:07:41 10° NE
USA 238 DEB 4.0 00:57:25 10° NW 01:04:18 49° WSW 01:05:02 47° SW
USA 238 4.0 00:57:30 10° NW 01:04:24 49° WSW 01:05:09 47° SW
ATLAS 2AS CENTAUR R/B 3.3 01:01:08 36° WSW 01:04:43 67° NW 01:12:47 10° NNE
SL-16 R/B 4.4 01:01:33 10° W 01:05:13 17° NW 01:08:55 10° N
Unknown 4.3 01:05:17 50° NNW 01:05:19 50° NNW 01:09:22 10° NE
Cosmos 1536 3.4 01:06:29 55° NNW 01:06:29 55° NNW 01:09:47 10° N
Cosmos 220 Rocket 4.4 01:02:32 10° NNW 01:06:10 56° NW 01:06:10 56° NW
Cosmos 1777 Rocket 3.9 01:07:49 69° SE 01:08:11 72° ESE 01:13:25 10° NNE
Unknown 4.4 01:08:26 47° NW 01:08:37 48° NNW 01:12:40 10° NE
NOSS 2-2 (D) 4.4 01:08:49 36° NW 01:08:49 36° NW 01:12:44 10° NNE
Unknown 4.4 01:10:01 46° NW 01:10:19 47° NNW 01:14:22 10° NE
Cosmos 1908 Rocket 3.9 01:11:40 58° WNW 01:11:40 58° WNW 01:15:45 10° N
Unknown 4.4 01:11:39 45° NW 01:11:58 46° NNW 01:15:59 10° NE
FALCON 9 R/B 4.2 01:09:09 34° S 01:12:29 38° SSE 01:57:39 10° E
Cosmos 2074 Rocket 4.3 01:06:32 10° N 01:12:45 60° E 01:15:11 37° SE
Unknown 4.4 01:13:13 44° NW 01:13:35 45° NNW 01:17:37 10° NE
Cosmos 2263 4.2 01:08:25 10° NNW 01:13:57 59° WSW 01:14:07 59° WSW
Cosmos 1656 Rocket 3.7 01:08:46 10° NNW 01:14:29 79° ENE 01:16:03 49° SE
Unknown 4.4 01:16:20 43° NW 01:16:47 45° NNW 01:20:48 10° NE
Meteor 1-23 Rocket 4.2 01:12:46 10° NNW 01:18:39 85° W 01:19:49 59° S
Cosmos 1943 3.7 01:17:46 43° W 01:19:00 51° WNW 01:24:33 10° NNE
Cosmos 1709 Rocket 4.2 01:13:06 10° NNW 01:19:01 50° W 01:19:54 46° WSW
NPP 4.4 01:16:15 10° NNE 01:21:23 43° E 01:22:42 37° SE
SL-4 R/B 3.0 01:18:21 10° NW 01:22:59 52° NNE 01:27:18 10° ESE
Okean 2 Rocket 3.6 01:23:33 46° ESE 01:23:55 47° E 01:28:11 10° NNE
Resurs 1-4 Rocket 2.6 01:21:36 10° NNE 01:26:45 49° E 01:27:59 41° SE
ADEOS II 4.4 01:23:54 10° NE 01:27:00 16° E 01:30:02 10° SE
Nadezhda 1 Rocket 4.5 01:27:10 35° SSE 01:29:39 56° E 01:35:51 10° NNE
H-2A R/B 2.3 01:29:09 59° SE 01:29:50 70° ENE 01:34:20 10° N
TRAILBLAZER 4.5 01:30:50 10° NW 01:35:32 88° WSW 01:35:59 73° SSE
SL-16 R/B 2.6 01:33:25 34° SSE 01:36:20 77° ENE 01:42:31 10° NNW
Cosmos 1943 Rocket 3.5 01:36:02 10° NW 01:39:31 23° W 01:39:31 23° W
SAR-Lupe-4 4.1 01:41:12 52° NNW 01:41:12 52° NNW 01:44:02 10° NNW
Cosmos 773 Rocket 4.2 01:36:43 10° NNW 01:41:47 50° WSW 01:41:56 50° WSW
Cosmos 1066 Rocket 4.1 01:36:22 10° NNW 01:42:08 76° W 01:43:31 52° SSW
ATLAS 5 CENTAUR R/B 4.1 01:38:22 10° WNW 01:41:02 18° W 01:41:02 18° W
Cosmos 1782 Rocket 4.1 01:45:37 45° W 01:45:45 46° WNW 01:50:04 10° N
Cosmos 1300 Rocket 4.1 01:45:39 43° SE 01:46:32 51° E 01:50:52 10° NNE
Cosmos 1743 2.6 01:48:17 82° E 01:48:17 82° E 01:52:06 10° N
NOSS 3-2 (C) 4.3 01:43:17 10° NW 01:50:36 47° WSW 01:53:20 36° SSW
Cosmos 1975 2.9 01:51:24 62° SE 01:51:48 68° E 01:55:52 10° NNE
RESURS DK-1 2.2 01:54:45 77° SW 01:55:01 86° WNW 01:59:13 10° NNE
Okean 2 3.2 01:52:22 10° N 01:56:34 82° W 01:56:54 74° SSW
Cosmos 1610 Rocket 4.4 01:51:59 10° N 01:58:13 87° E 02:01:11 33° S
Cosmos 1666 3.7 01:59:38 34° WNW 01:59:38 34° WNW 02:02:57 10° N
Cosmos 2151 Rocket 3.7 01:58:55 52° SSE 01:59:55 74° E 02:04:27 10° NNE
Cosmos 1025 Rocket 3.7 01:58:11 10° N 02:02:30 51° ENE 02:04:33 28° SE
Cosmos 2154 Rocket 4.0 01:56:39 10° N 02:03:03 86° E 02:06:32 29° S
CZ-2D R/B 2.1 01:58:00 10° NNE 02:03:29 82° WNW 02:05:21 43° SSW
CZ-4B R/B 3.7 02:02:47 12° ESE 02:04:42 20° ENE 02:07:02 10° NNE
NOSS 3-4 (A) 4.3 02:06:30 23° W 02:09:49 41° NW 02:15:53 10° NNE
NOSS 3-4 (C) 4.3 02:06:37 23° W 02:09:54 41° NW 02:15:58 10° NNE
Genesis I 3.6 02:11:33 48° W 02:12:13 55° NW 02:16:15 10° NNE
Atlas Centaur 2 3.8 02:12:15 25° S 02:12:34 25° S 02:18:01 10° ESE
ARIANE 5 R/B 3.3 02:07:47 10° NNE 02:12:44 45° E 02:15:34 23° SSE
Okean 1 Rocket 4.0 02:11:12 25° SSE 02:13:17 43° E 02:17:32 10° NNE
UNK 3.9 02:13:01 47° SW 02:13:36 50° W 02:18:04 10° NNW
Cosmos 1842 3.5 02:10:11 10° N 02:14:03 63° E 02:15:19 38° SSE
CBERS-1 3.9 02:10:24 10° NNE 02:15:33 83° WNW 02:17:27 40° SSW
Cosmos 1340 3.1 02:15:27 46° W 02:15:35 46° WNW 02:19:14 10° N
Meteor 2-15 4.5 02:13:49 37° SSW 02:16:13 66° W 02:22:15 10° N
Cosmos 923 Rocket 4.0 02:12:35 10° NNW 02:17:54 68° WSW 02:20:18 33° S
Cosmos 2369 Rocket 4.3 02:17:58 10° WNW 02:18:56 11° W 02:18:56 11° W
Cosmos 1975 Rocket 4.5 02:16:29 10° NW 02:19:37 23° W 02:19:37 23° W
Meteor 1-21 4.3 02:14:27 10° N 02:20:18 79° E 02:24:27 19° SSE
CENTAUR R/B 3.5 02:16:37 10° NW 02:24:17 44° WSW 02:29:39 21° S
Helios 1B 4.5 02:27:26 37° S 02:29:03 73° WSW 02:33:24 10° NNW
Cosmos 405 3.9 02:26:11 10° N 02:29:36 46° ENE 02:31:47 20° SE
ATLAS 3B R/B 3.4 02:26:17 10° NW 02:31:51 29° WSW 02:32:54 28° SW
deb Chang Zheng 4 3.7 02:29:00 10° N 02:33:12 59° WNW 02:34:32 39° SW
SL-8 Rocket 4.4 02:28:33 10° N 02:34:51 65° E 02:41:07 10° SSE
SJ 16-02 1.8 02:34:27 28° S 02:36:33 55° ESE 02:40:52 10° NNE
Cosmos 1346 Rocket 4.2 02:37:26 22° W 02:38:03 23° WNW 02:41:17 10° NNW
CZ-4C R/B 3.5 02:40:44 40° WSW 02:40:55 40° W 02:44:21 10° NNW
CZ-2C R/B 4.0 02:37:47 10° NNE 02:41:15 34° E 02:43:47 16° SSE
Cosmos 1937 Rocket 3.6 02:39:03 26° S 02:42:00 70° ESE 02:47:15 10° NNE
Cosmos 1680 Rocket 3.6 02:36:54 10° NNW 02:42:04 54° WSW 02:45:05 24° S
Spot 4 Rocket 4.2 02:37:15 10° NNE 02:42:25 71° ESE 02:45:49 22° S
IRS-1C 4.2 02:41:40 10° N 02:46:57 65° WNW 02:49:54 27° SW
Cosmos 1898 Rocket 3.5 02:46:28 28° SSW 02:49:19 74° WNW 02:54:40 10° NNE
COSMOS 2406 3.2 02:46:44 25° SSW 02:50:07 85° ESE 02:55:51 10° NNE
Cosmos 962 Rocket 4.5 02:44:57 10° NNW 02:51:03 63° W 02:55:33 18° S
Cosmos 2181 Rocket 4.0 02:47:13 20° S 02:51:47 87° W 02:58:01 10° N
Cosmos 1689 Rocket 2.5 02:53:06 17° SSE 02:55:11 60° ENE 02:58:07 10° N
SL-4 R/B 2.6 02:58:24 10° WNW 03:02:38 38° SW 03:06:34 10° SSE
IRS-1D 4.3 02:58:49 10° N 03:03:20 36° WNW 03:05:59 21° WSW
GPS 2-04 Rocket1 4.3 03:04:53 16° S 03:05:10 16° SSE 03:07:23 10° SE
Cosmos 1892 Rocket 4.3 03:01:06 10° N 03:05:24 53° E 03:09:41 10° SSE
Cosmos 1697 Rocket 4.0 03:00:48 10° NNW 03:06:12 43° ENE 03:11:35 10° SE
Resurs 1-4 Rocket 3.6 03:02:07 10° NNW 03:06:14 24° WNW 03:09:04 15° WSW
H-2A R/B 4.2 03:06:15 12° W 03:06:15 12° W 03:08:01 10° WNW
ADEOS II 2.1 03:01:57 10° N 03:07:12 68° WNW 03:10:59 19° SSW
PSLV R/B 3.0 03:07:00 39° SW 03:07:36 48° S 03:10:20 10° ESE
Cosmos 1833 Rocket 3.4 03:03:08 12° S 03:08:06 50° ESE 03:13:33 10° NE
Cosmos 1378 4.3 03:05:17 10° NW 03:08:22 25° W 03:09:08 23° WSW
Aureole 3 2.8 03:07:20 23° S 03:09:08 81° E 03:12:39 10° N
CZ-2D R/B 3.5 03:06:23 10° N 03:10:45 77° WNW 03:13:58 18° SSW
SL-08 R/B 4.2 03:11:40 21° SW 03:13:40 29° W 03:17:49 10° NW
Cosmos 1980 Rocket 4.3 03:09:50 10° N 03:14:43 30° NE 03:19:35 10° ESE
Cosmos 2084 3.5 03:10:46 10° NW 03:14:48 48° WSW 03:18:43 10° SSE
Cosmos 1959 Rocket 4.5 03:12:24 10° NNW 03:18:42 72° W 03:24:54 10° S
Cosmos 1656 3.7 03:14:31 10° NNW 03:20:16 89° ENE 03:25:58 10° SSE
SL-16 R/B 4.0 03:18:31 15° WSW 03:20:33 17° W 03:24:29 10° NW
Milstar 3 3.9 03:17:21 17° SW 03:20:42 25° S 03:26:48 10° SE
Cosmos 1707 2.8 03:22:06 10° NNW 03:25:54 58° W 03:29:39 10° S
Aureole 2 Rocket 3.7 03:29:56 10° WNW 03:32:01 17° W 03:32:21 17° WSW
Cosmos 44 3.0 03:28:42 10° NW 03:33:17 84° WSW 03:37:37 10° SSE
Cosmos 2366 rocket 4.1 03:27:37 10° NNW 03:33:38 58° W 03:39:37 10° S
Meteor 1-28 Rocket 3.2 03:30:08 10° SSE 03:33:56 89° W 03:37:43 10° NNW
Meteor 1-15 Rocket 4.2 03:29:29 10° SSW 03:35:10 77° W 03:40:48 10° N
Milstar 3 Cent rocket 3.7 03:33:55 12° SSW 03:36:32 17° SSE 03:40:15 10° SE
CZ-4B R/B 2.8 03:36:06 16° WSW 03:37:02 18° W 03:39:17 10° NW
CZ-2D R/B 4.2 03:40:21 10° NNW 03:42:40 13° WNW 03:45:01 10° W
CBERS 1 LM4 rocket 4.4 03:38:12 10° N 03:42:56 71° WNW 03:47:45 10° SSW
USA 215 3.3 03:36:39 10° SE 03:43:11 86° SW 03:49:47 10° NW
Cosmos 2082 Rocket 2.4 03:40:51 10° SSW 03:46:25 74° ESE 03:52:02 10° NNE
ARIANE 5 R/B 3.9 03:47:29 10° NNW 03:51:34 25° WNW 03:55:40 10° WSW
PSLV R/B 3.6 03:49:35 10° NNE 03:53:48 84° E 03:58:02 10° SSW
Cosmos 2298 Rocket 4.4 03:54:33 10° SW 03:59:40 49° WNW 04:04:50 10° N
Cosmos 2369 3.7 03:54:32 10° NNW 04:00:08 63° WSW 04:05:42 10° S
Atlas Centaur 2 3.6 03:55:11 10° WSW 04:01:10 27° S 04:06:13 10° SE
Cosmos 1821 Rocket 4.1 03:56:26 10° N 04:02:50 89° W 04:09:15 10° S
Cosmos 1766 3.2 03:59:17 10° S 04:03:10 86° W 04:07:06 10° N
Cosmos 2360 4.4 04:00:36 10° NNW 04:06:19 82° ENE 04:12:00 10° SSE
Cosmos 2150 Rocket 4.5 04:03:21 10° SW 04:08:19 45° WNW 04:13:16 10° N
ADEOS 3.8 04:05:24 10° N 04:10:32 57° WNW 04:15:38 10° SSW
